COSMOS 1892

Last updated on Tue Sep 16 2025 00:02:14 GMT+0000 (Coordinated Universal Time)

1 18421U 87088A 25258.13597875 .00179096 00000+0 11131-2 0 9994 2 18421 82.4783 142.1015 0007234 118.6919 241.5074 15.76428479 77229
UTC large
Height (km)
Speed (km/s)
/
Latitude / Longitude
Inclination (degrees)
Orbital Period (minutes)
Azimuth
Elevation
Range (km)
Doppler Factor

Next 0 passes for location: London (51.5072 / 0.1276)

Sorry there are no passes over London.